UAE59U OMDB-OBBI

Flight info

Callsign UAE59U
Flight time 0h 45m
Altitude 26000
Route NABIX P699 ORMID M556 ORDIG
Aircraft A359/H-SDE2E3GHIJ3J4J5LM1ORWXY/LB1D1

Departure

Time 2026-04-25 12:30
Airport Dubai International Airport (OMDB)

Arrival

Time 2026-04-25 13:16
Airport Bahrain International Airport (OBBI)
Time Latitude Longitude Altitude Speed Heading
2026-04-25 12:01 25.24534 55.36562 28 ft 0 kts 357°
2026-04-25 12:01 25.24535 55.36563 28 ft 0 kts 357°
2026-04-25 12:19 25.24516 55.36564 27 ft 4 kts 357°
2026-04-25 12:20 25.24489 55.36565 25 ft 4 kts 355°
2026-04-25 12:20 25.24462 55.36569 26 ft 4 kts 352°
2026-04-25 12:20 25.24447 55.36570 26 ft 0 kts 358°
2026-04-25 12:20 25.24459 55.36580 26 ft 4 kts 46°
2026-04-25 12:21 25.24471 55.36606 27 ft 4 kts 67°
2026-04-25 12:21 25.24481 55.36634 27 ft 4 kts 67°
2026-04-25 12:21 25.24493 55.36660 27 ft 4 kts 60°
2026-04-25 12:21 25.24507 55.36680 27 ft 0 kts 43°
2026-04-25 12:23 25.24508 55.36683 27 ft 1 kts 60°
2026-04-25 12:23 25.24506 55.36690 27 ft 1 kts 95°
2026-04-25 12:23 25.24502 55.36694 27 ft 1 kts 128°
2026-04-25 12:23 25.24497 55.36695 27 ft 1 kts 156°
2026-04-25 12:24 25.24492 55.36694 27 ft 1 kts 185°
2026-04-25 12:24 25.24491 55.36693 27 ft 0 kts 191°
2026-04-25 12:24 25.24482 55.36692 27 ft 4 kts 183°
2026-04-25 12:25 25.24421 55.36709 27 ft 14 kts 159°
2026-04-25 12:25 25.24345 55.36782 27 ft 16 kts 124°
2026-04-25 12:25 25.24282 55.36893 27 ft 18 kts 121°
2026-04-25 12:25 25.24212 55.37019 27 ft 21 kts 121°
2026-04-25 12:26 25.24139 55.37152 27 ft 21 kts 121°
2026-04-25 12:26 25.24061 55.37290 27 ft 22 kts 122°
2026-04-25 12:26 25.23981 55.37436 27 ft 22 kts 114°
2026-04-25 12:26 25.24007 55.37596 27 ft 23 kts 45°
2026-04-25 12:27 25.24142 55.37693 27 ft 22 kts 31°
2026-04-25 12:27 25.24264 55.37774 28 ft 19 kts 31°
2026-04-25 12:27 25.24342 55.37830 28 ft 4 kts 34°
2026-04-25 12:27 25.24347 55.37833 28 ft 0 kts 34°
2026-04-25 12:28 25.24354 55.37839 28 ft 5 kts 34°
2026-04-25 12:28 25.24406 55.37878 29 ft 13 kts 34°
2026-04-25 12:28 25.24486 55.37938 31 ft 15 kts 34°
2026-04-25 12:29 25.24580 55.38008 29 ft 18 kts 34°
2026-04-25 12:29 25.24687 55.38084 31 ft 16 kts 31°
2026-04-25 12:29 25.24770 55.38082 32 ft 13 kts 314°
2026-04-25 12:29 25.24823 55.37995 31 ft 15 kts 301°
2026-04-25 12:30 25.24954 55.37754 32 ft 70 kts 301°
2026-04-25 12:30 25.25339 55.37066 32 ft 137 kts 301°
2026-04-25 12:30 25.25924 55.36013 287 ft 175 kts 302°
2026-04-25 12:30 25.26562 55.34828 983 ft 183 kts 300°
2026-04-25 12:31 25.27162 55.33554 1758 ft 191 kts 297°
2026-04-25 12:31 25.27857 55.32237 2172 ft 208 kts 304°
2026-04-25 12:31 25.28676 55.30842 2695 ft 222 kts 302°
2026-04-25 12:31 25.29137 55.29200 3388 ft 231 kts 273°
2026-04-25 12:32 25.28770 55.27461 4185 ft 236 kts 249°
2026-04-25 12:32 25.28078 55.25808 4980 ft 238 kts 245°
2026-04-25 12:32 25.27388 55.24136 5677 ft 245 kts 250°
2026-04-25 12:32 25.27053 55.22221 6040 ft 265 kts 267°
2026-04-25 12:33 25.27079 55.20105 6378 ft 287 kts 274°
2026-04-25 12:33 25.27302 55.17862 6695 ft 307 kts 277°
2026-04-25 12:33 25.27648 55.15468 7085 ft 322 kts 279°
2026-04-25 12:33 25.28039 55.13008 7699 ft 329 kts 279°
2026-04-25 12:34 25.28437 55.10494 8385 ft 333 kts 279°
2026-04-25 12:34 25.28822 55.07949 9123 ft 337 kts 278°
2026-04-25 12:34 25.29192 55.05376 9886 ft 340 kts 278°
2026-04-25 12:34 25.29431 55.03660 10341 ft 343 kts 277°
2026-04-25 12:35 25.29908 55.00142 11249 ft 349 kts 277°
2026-04-25 12:35 25.30264 54.97473 11929 ft 354 kts 277°
2026-04-25 12:35 25.30624 54.94768 12623 ft 358 kts 277°
2026-04-25 12:35 25.30989 54.92027 13333 ft 362 kts 277°
2026-04-25 12:36 25.31358 54.89257 13993 ft 366 kts 277°
2026-04-25 12:36 25.31726 54.86498 14640 ft 368 kts 277°
2026-04-25 12:36 25.32101 54.83691 15336 ft 370 kts 277°
2026-04-25 12:36 25.32478 54.80867 15999 ft 372 kts 277°
2026-04-25 12:37 25.32856 54.78029 16665 ft 374 kts 277°
2026-04-25 12:37 25.33236 54.75165 17348 ft 377 kts 277°
2026-04-25 12:37 25.33619 54.72284 18038 ft 379 kts 276°
2026-04-25 12:37 25.34003 54.69386 18647 ft 382 kts 276°
2026-04-25 12:38 25.34388 54.66471 19289 ft 384 kts 276°
2026-04-25 12:38 25.34774 54.63549 19960 ft 385 kts 276°
2026-04-25 12:38 25.35162 54.60611 20642 ft 387 kts 276°
2026-04-25 12:38 25.35550 54.57663 21283 ft 389 kts 276°
2026-04-25 12:39 25.35940 54.54693 21923 ft 391 kts 276°
2026-04-25 12:39 25.36326 54.51751 22549 ft 393 kts 276°
2026-04-25 12:39 25.36720 54.48750 23199 ft 395 kts 276°
2026-04-25 12:39 25.37114 54.45736 23802 ft 397 kts 276°
2026-04-25 12:40 25.37509 54.42708 24294 ft 400 kts 276°
2026-04-25 12:40 25.37907 54.39648 24785 ft 404 kts 276°
2026-04-25 12:40 25.38310 54.36553 25290 ft 408 kts 276°
2026-04-25 12:40 25.38715 54.33434 25713 ft 411 kts 276°
2026-04-25 12:41 25.39121 54.30312 25863 ft 406 kts 276°
2026-04-25 12:41 25.39517 54.27270 25882 ft 393 kts 276°
2026-04-25 12:41 25.39903 54.24306 25892 ft 388 kts 276°
2026-04-25 12:41 25.40284 54.21355 25888 ft 387 kts 276°
2026-04-25 12:42 25.40663 54.18409 25885 ft 387 kts 276°
2026-04-25 12:42 25.40914 54.16452 25884 ft 387 kts 276°
2026-04-25 12:42 25.41419 54.12512 25888 ft 387 kts 276°
2026-04-25 12:42 25.41796 54.09563 25895 ft 387 kts 276°
2026-04-25 12:43 25.42168 54.06657 25894 ft 386 kts 276°
2026-04-25 12:43 25.42544 54.03718 25889 ft 386 kts 276°
2026-04-25 12:43 25.43294 53.97834 25896 ft 386 kts 276°
2026-04-25 12:44 25.43669 53.94891 25891 ft 386 kts 276°
2026-04-25 12:44 25.44043 53.91946 25892 ft 386 kts 275°
2026-04-25 12:44 25.44790 53.86052 25892 ft 386 kts 275°
2026-04-25 12:45 25.45162 53.83109 25892 ft 386 kts 275°
2026-04-25 12:45 25.45533 53.80164 25893 ft 386 kts 275°
2026-04-25 12:45 25.46275 53.74271 25894 ft 386 kts 275°
2026-04-25 12:46 25.46645 53.71329 25892 ft 386 kts 275°
2026-04-25 12:46 25.47014 53.68385 25892 ft 386 kts 275°
2026-04-25 12:46 25.47382 53.65444 25892 ft 386 kts 275°
2026-04-25 12:46 25.47750 53.62502 25893 ft 387 kts 275°
2026-04-25 12:47 25.49033 53.52104 25895 ft 441 kts 276°
2026-04-25 12:47 25.50761 53.38186 25897 ft 460 kts 276°
2026-04-25 12:47 25.52492 53.24114 25895 ft 460 kts 276°
2026-04-25 12:47 25.54196 53.10099 25901 ft 461 kts 276°
2026-04-25 12:48 25.55895 52.96021 25904 ft 461 kts 276°
2026-04-25 12:48 25.60297 52.82849 25909 ft 467 kts 295°
2026-04-25 12:48 25.66584 52.70234 25909 ft 467 kts 296°
2026-04-25 12:48 25.71782 52.59604 25909 ft 467 kts 295°
2026-04-25 12:49 25.73320 52.56434 25910 ft 467 kts 295°
2026-04-25 12:49 25.74860 52.53255 25912 ft 467 kts 295°
2026-04-25 12:49 25.76396 52.50083 25912 ft 467 kts 295°
2026-04-25 12:49 25.77914 52.46902 25914 ft 466 kts 294°
2026-04-25 12:50 25.79400 52.43710 25917 ft 465 kts 294°
2026-04-25 12:50 25.80871 52.40515 25917 ft 465 kts 293°
2026-04-25 12:50 25.82341 52.37316 25920 ft 465 kts 293°
2026-04-25 12:50 25.83779 52.34190 25919 ft 465 kts 294°
2026-04-25 12:51 25.85050 52.31435 25920 ft 465 kts 294°
2026-04-25 12:51 25.86617 52.28287 25920 ft 468 kts 299°
2026-04-25 12:51 25.88553 52.25419 25925 ft 472 kts 305°
2026-04-25 12:51 25.90688 52.22645 25919 ft 473 kts 307°
2026-04-25 12:52 25.92894 52.19924 25919 ft 473 kts 308°
2026-04-25 12:52 25.95129 52.17235 25919 ft 474 kts 308°
2026-04-25 12:52 25.97377 52.14556 25919 ft 474 kts 308°
2026-04-25 12:52 26.00585 52.10729 25678 ft 461 kts 308°
2026-04-25 12:53 26.02733 52.08159 25441 ft 447 kts 308°
2026-04-25 12:53 26.04824 52.05644 25212 ft 441 kts 308°
2026-04-25 12:53 26.06904 52.03134 24989 ft 441 kts 308°
2026-04-25 12:53 26.08977 52.00620 24762 ft 440 kts 308°
2026-04-25 12:54 26.11040 51.98113 24537 ft 439 kts 308°
2026-04-25 12:54 26.13075 51.95638 24323 ft 438 kts 308°
2026-04-25 12:54 26.15131 51.93140 24096 ft 437 kts 308°
2026-04-25 12:54 26.17180 51.90650 23883 ft 436 kts 308°
2026-04-25 12:55 26.19224 51.88166 23658 ft 434 kts 309°
2026-04-25 12:55 26.20603 51.86490 23508 ft 434 kts 309°
2026-04-25 12:55 26.23295 51.83207 23176 ft 431 kts 308°
2026-04-25 12:55 26.25093 51.80566 22912 ft 424 kts 299°
2026-04-25 12:56 26.26570 51.77743 22644 ft 420 kts 295°
2026-04-25 12:56 26.27935 51.74878 22384 ft 417 kts 294°
2026-04-25 12:56 26.29235 51.71998 22151 ft 415 kts 293°
2026-04-25 12:56 26.30505 51.69114 21896 ft 413 kts 292°
2026-04-25 12:57 26.31761 51.66239 21634 ft 411 kts 292°
2026-04-25 12:57 26.33015 51.63379 21393 ft 410 kts 292°
2026-04-25 12:57 26.34271 51.60530 21142 ft 408 kts 292°
2026-04-25 12:57 26.35524 51.57701 20900 ft 407 kts 292°
2026-04-25 12:58 26.36777 51.54883 20658 ft 405 kts 292°
2026-04-25 12:58 26.37898 51.52062 20434 ft 401 kts 288°
2026-04-25 12:58 26.38899 51.49179 20196 ft 396 kts 287°
2026-04-25 12:58 26.39846 51.46313 19955 ft 393 kts 286°
2026-04-25 12:59 26.40765 51.43445 19721 ft 391 kts 286°
2026-04-25 12:59 26.41668 51.40591 19482 ft 390 kts 286°
2026-04-25 12:59 26.42563 51.37755 19190 ft 385 kts 286°
2026-04-25 12:59 26.43451 51.34953 18695 ft 379 kts 286°
2026-04-25 13:00 26.44327 51.32200 18119 ft 375 kts 286°
2026-04-25 13:00 26.44620 51.31276 17899 ft 374 kts 286°
2026-04-25 13:00 26.45403 51.26652 16919 ft 360 kts 267°
2026-04-25 13:00 26.44981 51.23929 16367 ft 354 kts 252°
2026-04-25 13:01 26.44114 51.21367 15812 ft 350 kts 248°
2026-04-25 13:01 26.43174 51.18870 15247 ft 347 kts 248°
2026-04-25 13:01 26.42252 51.16430 14732 ft 343 kts 248°
2026-04-25 13:01 26.41334 51.13986 14198 ft 340 kts 248°
2026-04-25 13:02 26.40427 51.11559 13695 ft 336 kts 248°
2026-04-25 13:02 26.39529 51.09153 13137 ft 333 kts 248°
2026-04-25 13:02 26.38641 51.06769 12606 ft 331 kts 248°
2026-04-25 13:02 26.37758 51.04400 12077 ft 330 kts 248°
2026-04-25 13:03 26.36880 51.02043 11572 ft 328 kts 248°
2026-04-25 13:03 26.36027 50.99755 11409 ft 307 kts 248°
2026-04-25 13:03 26.35241 50.97648 11254 ft 292 kts 248°
2026-04-25 13:03 26.34565 50.95532 10853 ft 288 kts 256°
2026-04-25 13:04 26.34425 50.93314 10441 ft 287 kts 275°
2026-04-25 13:04 26.34537 50.92575 10299 ft 287 kts 281°
2026-04-25 13:04 26.35319 50.90508 9880 ft 288 kts 297°
2026-04-25 13:04 26.36387 50.88627 9433 ft 286 kts 300°
2026-04-25 13:05 26.37470 50.86802 9003 ft 285 kts 300°
2026-04-25 13:05 26.38555 50.84963 8557 ft 283 kts 300°
2026-04-25 13:05 26.39631 50.83127 8123 ft 281 kts 300°
2026-04-25 13:05 26.40697 50.81298 7684 ft 280 kts 300°
2026-04-25 13:06 26.41730 50.79464 7262 ft 278 kts 296°
2026-04-25 13:06 26.42495 50.77509 6920 ft 272 kts 285°
2026-04-25 13:06 26.42769 50.75437 6672 ft 270 kts 268°
2026-04-25 13:06 26.42367 50.73412 6437 ft 269 kts 245°
2026-04-25 13:07 26.41270 50.71764 6200 ft 270 kts 221°
2026-04-25 13:07 26.39595 50.70822 5965 ft 274 kts 194°
2026-04-25 13:07 26.37695 50.70912 5730 ft 278 kts 165°
2026-04-25 13:07 26.36010 50.71968 5484 ft 282 kts 139°
2026-04-25 13:08 26.34810 50.73698 5244 ft 283 kts 123°
2026-04-25 13:08 26.33792 50.75569 4996 ft 282 kts 122°
2026-04-25 13:08 26.32791 50.77415 4688 ft 280 kts 122°
2026-04-25 13:08 26.31771 50.79264 4382 ft 279 kts 123°
2026-04-25 13:09 26.30747 50.81097 4067 ft 278 kts 123°
2026-04-25 13:09 26.29722 50.82920 3755 ft 276 kts 123°
2026-04-25 13:09 26.28688 50.84716 3435 ft 275 kts 126°
2026-04-25 13:09 26.27332 50.86113 3119 ft 259 kts 152°
2026-04-25 13:10 26.25720 50.86859 2783 ft 243 kts 166°
2026-04-25 13:10 26.24105 50.86833 2465 ft 227 kts 198°
2026-04-25 13:10 26.22705 50.86109 2168 ft 220 kts 210°
2026-04-25 13:10 26.21450 50.85243 2011 ft 208 kts 212°
2026-04-25 13:11 26.20319 50.84341 1983 ft 196 kts 223°
2026-04-25 13:11 26.19699 50.83014 1985 ft 195 kts 258°
2026-04-25 13:11 26.19537 50.81516 1983 ft 195 kts 267°
2026-04-25 13:11 26.19514 50.80005 1989 ft 195 kts 270°
2026-04-25 13:12 26.19516 50.78490 1989 ft 195 kts 271°
2026-04-25 13:12 26.19615 50.76989 1994 ft 195 kts 285°
2026-04-25 13:12 26.20038 50.75623 1990 ft 181 kts 297°
2026-04-25 13:12 26.20260 50.75229 1991 ft 176 kts 307°
2026-04-25 13:13 26.21366 50.73377 1788 ft 172 kts 301°
2026-04-25 13:13 26.21988 50.72273 1553 ft 162 kts 304°
2026-04-25 13:13 26.22577 50.71245 1340 ft 153 kts 304°
2026-04-25 13:13 26.23126 50.70276 1151 ft 144 kts 304°
2026-04-25 13:14 26.23482 50.69654 1042 ft 143 kts 305°
2026-04-25 13:14 26.24014 50.68722 862 ft 142 kts 303°
2026-04-25 13:14 26.24543 50.67798 679 ft 140 kts 302°
2026-04-25 13:14 26.25049 50.66876 476 ft 137 kts 301°
2026-04-25 13:15 26.25716 50.65706 245 ft 133 kts 305°
2026-04-25 13:15 26.26056 50.65140 141 ft 133 kts 306°
2026-04-25 13:15 26.26556 50.64274 29 ft 129 kts 305°
2026-04-25 13:15 26.26964 50.63569 23 ft 78 kts 303°
2026-04-25 13:16 26.27165 50.63227 24 ft 43 kts 302°
2026-04-25 13:16 26.27254 50.62937 23 ft 34 kts 273°
2026-04-25 13:16 26.27259 50.62799 29 ft 12 kts 271°
2026-04-25 13:16 26.27258 50.62761 28 ft 2 kts 265°
2026-04-25 13:17 26.27257 50.62737 27 ft 4 kts 268°
2026-04-25 13:17 26.27254 50.62696 24 ft 7 kts 260°
2026-04-25 13:17 26.27223 50.62646 28 ft 9 kts 212°
2026-04-25 13:17 26.27165 50.62666 28 ft 11 kts 137°
2026-04-25 13:18 26.27115 50.62745 27 ft 14 kts 122°
2026-04-25 13:18 26.27057 50.62846 28 ft 16 kts 122°
2026-04-25 13:18 26.27020 50.62895 28 ft 4 kts 162°
2026-04-25 13:18 26.26986 50.62886 27 ft 5 kts 207°
2026-04-25 13:19 26.26951 50.62863 27 ft 4 kts 211°
2026-04-25 13:19 26.26934 50.62851 27 ft 0 kts 212°
2026-04-25 13:19 26.26933 50.62850 27 ft 0 kts 212°